OCN135K HTZA-HKMO

Flight info

Callsign OCN135K
Flight time 0h 34m
Altitude 21000
Route UVUKO UVUKO2A
Aircraft A332/H-SDE2E3FGHIJ3J4J5LM1OP2RWXYZ/LB1D1

Departure

Time 2026-05-07 10:40
Airport Abeid Amani Karume International Airport (HTZA)

Arrival

Time 2026-05-07 11:15
Airport Moi International Airport (HKMO)
Time Latitude Longitude Altitude Speed Heading
2026-05-07 10:19 -6.22332 39.22243 60 ft 0 kts 353°
2026-05-07 10:31 -6.22331 39.22242 60 ft 1 kts 353°
2026-05-07 10:32 -6.22327 39.22242 60 ft 0 kts 353°
2026-05-07 10:32 -6.22325 39.22242 60 ft 1 kts 353°
2026-05-07 10:32 -6.22297 39.22253 60 ft 6 kts 53°
2026-05-07 10:33 -6.22287 39.22308 54 ft 9 kts 65°
2026-05-07 10:33 -6.22224 39.22322 60 ft 11 kts 355°
2026-05-07 10:33 -6.22132 39.22312 55 ft 15 kts 354°
2026-05-07 10:33 -6.22028 39.22302 61 ft 10 kts 355°
2026-05-07 10:34 -6.21982 39.22339 58 ft 9 kts 75°
2026-05-07 10:34 -6.21978 39.22372 61 ft 0 kts 84°
2026-05-07 10:36 -6.21977 39.22376 54 ft 3 kts 84°
2026-05-07 10:36 -6.21974 39.22417 61 ft 9 kts 84°
2026-05-07 10:37 -6.21928 39.22462 55 ft 12 kts
2026-05-07 10:37 -6.21832 39.22454 55 ft 16 kts 354°
2026-05-07 10:37 -6.21704 39.22441 56 ft 21 kts 354°
2026-05-07 10:37 -6.21540 39.22425 63 ft 25 kts 354°
2026-05-07 10:38 -6.21364 39.22407 59 ft 26 kts 354°
2026-05-07 10:38 -6.21189 39.22389 56 ft 19 kts 353°
2026-05-07 10:38 -6.21139 39.22362 54 ft 7 kts 322°
2026-05-07 10:38 -6.21124 39.22368 63 ft 1 kts 56°
2026-05-07 10:39 -6.21133 39.22384 57 ft 4 kts 129°
2026-05-07 10:39 -6.21159 39.22387 55 ft 4 kts 177°
2026-05-07 10:39 -6.21286 39.22398 58 ft 47 kts 174°
2026-05-07 10:39 -6.21828 39.22453 60 ft 108 kts 174°
2026-05-07 10:40 -6.22748 39.22546 88 ft 154 kts 175°
2026-05-07 10:40 -6.23819 39.22655 705 ft 152 kts 175°
2026-05-07 10:40 -6.24862 39.22765 1360 ft 151 kts 172°
2026-05-07 10:40 -6.25962 39.22892 1726 ft 170 kts 173°
2026-05-07 10:41 -6.27222 39.23037 1983 ft 194 kts 173°
2026-05-07 10:41 -6.28628 39.22896 2237 ft 218 kts 201°
2026-05-07 10:41 -6.29882 39.21908 2461 ft 246 kts 233°
2026-05-07 10:41 -6.30502 39.20253 2990 ft 263 kts 262°
2026-05-07 10:42 -6.30260 39.18404 3754 ft 274 kts 290°
2026-05-07 10:42 -6.29176 39.16836 4639 ft 278 kts 318°
2026-05-07 10:42 -6.27486 39.15911 5486 ft 281 kts 345°
2026-05-07 10:42 -6.25538 39.15815 6300 ft 284 kts 10°
2026-05-07 10:43 -6.23595 39.16233 7116 ft 287 kts 14°
2026-05-07 10:43 -6.21632 39.16668 7959 ft 291 kts 13°
2026-05-07 10:43 -6.19641 39.17105 8832 ft 294 kts 13°
2026-05-07 10:43 -6.17625 39.17547 9700 ft 299 kts 13°
2026-05-07 10:44 -6.15574 39.17999 10360 ft 309 kts 13°
2026-05-07 10:44 -6.13398 39.18480 10697 ft 331 kts 13°
2026-05-07 10:44 -6.11087 39.18992 11074 ft 348 kts 13°
2026-05-07 10:44 -6.08692 39.19522 11669 ft 356 kts 13°
2026-05-07 10:45 -6.06254 39.20061 12366 ft 361 kts 13°
2026-05-07 10:45 -6.03818 39.20599 13072 ft 366 kts 13°
2026-05-07 10:45 -6.01316 39.21152 13760 ft 370 kts 13°
2026-05-07 10:45 -5.98789 39.21711 14367 ft 374 kts 13°
2026-05-07 10:46 -5.96241 39.22274 15008 ft 376 kts 13°
2026-05-07 10:46 -5.93678 39.22841 15641 ft 379 kts 13°
2026-05-07 10:46 -5.91088 39.23415 16253 ft 382 kts 13°
2026-05-07 10:46 -5.88487 39.23990 16891 ft 384 kts 13°
2026-05-07 10:47 -5.85864 39.24570 17490 ft 388 kts 13°
2026-05-07 10:47 -5.83221 39.25154 18094 ft 390 kts 13°
2026-05-07 10:47 -5.80563 39.25742 18615 ft 393 kts 14°
2026-05-07 10:47 -5.77886 39.26333 19110 ft 395 kts 13°
2026-05-07 10:48 -5.75189 39.26929 19590 ft 398 kts 13°
2026-05-07 10:48 -5.72477 39.27529 20060 ft 401 kts 13°
2026-05-07 10:48 -5.69745 39.28133 20530 ft 404 kts 13°
2026-05-07 10:48 -5.66992 39.28742 20839 ft 406 kts 13°
2026-05-07 10:49 -5.64243 39.29350 20916 ft 402 kts 13°
2026-05-07 10:49 -5.61523 39.29950 20920 ft 400 kts 13°
2026-05-07 10:49 -5.58809 39.30550 20919 ft 399 kts 13°
2026-05-07 10:49 -5.56099 39.31148 20920 ft 399 kts 14°
2026-05-07 10:50 -5.53380 39.31749 20919 ft 399 kts 13°
2026-05-07 10:50 -5.50667 39.32348 20920 ft 399 kts 13°
2026-05-07 10:50 -5.47960 39.32946 20919 ft 399 kts 14°
2026-05-07 10:50 -5.45239 39.33547 20920 ft 399 kts 13°
2026-05-07 10:51 -5.42526 39.34146 20917 ft 400 kts 13°
2026-05-07 10:51 -5.39812 39.34745 20917 ft 399 kts 13°
2026-05-07 10:51 -5.37099 39.35344 20916 ft 400 kts 14°
2026-05-07 10:51 -5.34382 39.35944 20917 ft 400 kts 13°
2026-05-07 10:52 -5.31660 39.36545 20919 ft 400 kts 14°
2026-05-07 10:52 -5.28942 39.37145 20922 ft 400 kts 13°
2026-05-07 10:52 -5.26223 39.37745 20925 ft 401 kts 13°
2026-05-07 10:52 -5.23496 39.38348 20917 ft 401 kts 14°
2026-05-07 10:53 -5.20777 39.38948 20914 ft 401 kts 14°
2026-05-07 10:53 -5.18051 39.39548 20916 ft 401 kts 14°
2026-05-07 10:53 -5.15326 39.40149 20914 ft 401 kts 13°
2026-05-07 10:53 -5.12643 39.40740 20914 ft 400 kts 14°
2026-05-07 10:54 -5.09920 39.41342 20914 ft 400 kts 14°
2026-05-07 10:54 -5.07202 39.41942 20914 ft 400 kts 14°
2026-05-07 10:54 -5.04480 39.42542 20914 ft 401 kts 14°
2026-05-07 10:54 -5.01760 39.43142 20914 ft 401 kts 14°
2026-05-07 10:55 -4.99036 39.43743 20914 ft 401 kts 14°
2026-05-07 10:55 -4.96313 39.44343 20914 ft 401 kts 14°
2026-05-07 10:55 -4.93587 39.44945 20911 ft 401 kts 13°
2026-05-07 10:55 -4.90865 39.45545 20911 ft 401 kts 13°
2026-05-07 10:56 -4.88133 39.46146 20744 ft 404 kts 14°
2026-05-07 10:56 -4.85377 39.46753 20502 ft 406 kts 14°
2026-05-07 10:56 -4.82618 39.47361 20266 ft 406 kts 13°
2026-05-07 10:56 -4.79865 39.47968 20035 ft 404 kts 13°
2026-05-07 10:57 -4.77126 39.48571 19804 ft 402 kts 14°
2026-05-07 10:57 -4.74396 39.49172 19574 ft 401 kts 14°
2026-05-07 10:57 -4.71688 39.49832 19346 ft 399 kts 19°
2026-05-07 10:57 -4.69202 39.51014 19122 ft 395 kts 36°
2026-05-07 10:58 -4.67008 39.52661 18895 ft 394 kts 40°
2026-05-07 10:58 -4.64891 39.54401 18670 ft 393 kts 41°
2026-05-07 10:58 -4.62785 39.56147 18451 ft 392 kts 41°
2026-05-07 10:58 -4.60685 39.57881 18222 ft 391 kts 40°
2026-05-07 10:59 -4.58589 39.59605 17961 ft 387 kts 40°
2026-05-07 10:59 -4.56525 39.61298 17592 ft 381 kts 41°
2026-05-07 10:59 -4.54481 39.62974 17127 ft 378 kts 40°
2026-05-07 10:59 -4.52449 39.64637 16641 ft 376 kts 41°
2026-05-07 11:00 -4.50425 39.66294 16169 ft 375 kts 40°
2026-05-07 11:00 -4.48415 39.67939 15697 ft 373 kts 40°
2026-05-07 11:00 -4.46412 39.69578 15206 ft 371 kts 40°
2026-05-07 11:00 -4.44412 39.71214 14722 ft 370 kts 41°
2026-05-07 11:01 -4.42423 39.72841 14238 ft 369 kts 40°
2026-05-07 11:01 -4.40436 39.74466 13772 ft 367 kts 40°
2026-05-07 11:01 -4.38461 39.76082 13249 ft 366 kts 40°
2026-05-07 11:01 -4.36498 39.77688 12759 ft 363 kts 40°
2026-05-07 11:02 -4.34550 39.79279 12298 ft 360 kts 40°
2026-05-07 11:02 -4.32618 39.80857 11837 ft 357 kts 40°
2026-05-07 11:02 -4.30705 39.82421 11434 ft 352 kts 41°
2026-05-07 11:02 -4.28844 39.83942 11021 ft 349 kts 40°
2026-05-07 11:03 -4.26940 39.85498 10541 ft 347 kts 40°
2026-05-07 11:03 -4.25710 39.86503 10391 ft 341 kts 41°
2026-05-07 11:03 -4.23913 39.87971 10299 ft 325 kts 40°
2026-05-07 11:03 -4.22193 39.89375 10182 ft 312 kts 41°
2026-05-07 11:04 -4.20012 39.91156 9996 ft 300 kts 41°
2026-05-07 11:04 -4.18925 39.92045 9801 ft 299 kts 41°
2026-05-07 11:04 -4.17269 39.93324 9380 ft 302 kts 34°
2026-05-07 11:04 -4.15324 39.94099 8987 ft 303 kts
2026-05-07 11:05 -4.13243 39.93946 8647 ft 302 kts 341°
2026-05-07 11:05 -4.11323 39.93080 8293 ft 304 kts 331°
2026-05-07 11:05 -4.09479 39.92042 7910 ft 303 kts 329°
2026-05-07 11:05 -4.07663 39.90990 7566 ft 301 kts 329°
2026-05-07 11:06 -4.05854 39.89946 7212 ft 298 kts 329°
2026-05-07 11:06 -4.04059 39.88921 6871 ft 296 kts 330°
2026-05-07 11:06 -4.02268 39.87907 6514 ft 295 kts 330°
2026-05-07 11:06 -4.00500 39.86909 6325 ft 288 kts 330°
2026-05-07 11:07 -3.98785 39.85938 6275 ft 279 kts 330°
2026-05-07 11:07 -3.97127 39.85007 6363 ft 268 kts 330°
2026-05-07 11:07 -3.95538 39.84112 6279 ft 254 kts 330°
2026-05-07 11:07 -3.94039 39.83272 6136 ft 241 kts 329°
2026-05-07 11:08 -3.92602 39.82466 6081 ft 231 kts 329°
2026-05-07 11:08 -3.91237 39.81702 6019 ft 219 kts 329°
2026-05-07 11:08 -3.89949 39.80958 5870 ft 209 kts 326°
2026-05-07 11:08 -3.88883 39.80025 5690 ft 200 kts 307°
2026-05-07 11:09 -3.88234 39.78836 5510 ft 192 kts 283°
2026-05-07 11:09 -3.88055 39.77558 5299 ft 186 kts 265°
2026-05-07 11:09 -3.88173 39.76273 5058 ft 185 kts 257°
2026-05-07 11:09 -3.88362 39.74981 4803 ft 185 kts 257°
2026-05-07 11:10 -3.88552 39.73708 4595 ft 184 kts 257°
2026-05-07 11:10 -3.88733 39.72459 4379 ft 183 kts 258°
2026-05-07 11:10 -3.88912 39.71198 4181 ft 183 kts 259°
2026-05-07 11:10 -3.89086 39.69938 3986 ft 183 kts 258°
2026-05-07 11:11 -3.89265 39.68674 3820 ft 182 kts 255°
2026-05-07 11:11 -3.89790 39.67607 3820 ft 166 kts 226°
2026-05-07 11:11 -3.90584 39.66803 3827 ft 163 kts 219°
2026-05-07 11:11 -3.91556 39.66193 3637 ft 171 kts 202°
2026-05-07 11:12 -3.92654 39.65662 3285 ft 179 kts 207°
2026-05-07 11:12 -3.93701 39.65021 3008 ft 170 kts 208°
2026-05-07 11:12 -3.94649 39.64382 2673 ft 159 kts 210°
2026-05-07 11:12 -3.95587 39.63840 2317 ft 153 kts 204°
2026-05-07 11:13 -3.96530 39.63369 1897 ft 150 kts 203°
2026-05-07 11:13 -3.97436 39.62870 1468 ft 147 kts 208°
2026-05-07 11:13 -3.98295 39.62340 1135 ft 144 kts 207°
2026-05-07 11:13 -3.99173 39.61830 859 ft 144 kts 204°
2026-05-07 11:14 -4.00036 39.61360 590 ft 140 kts 203°
2026-05-07 11:14 -4.00908 39.60870 369 ft 143 kts 204°
2026-05-07 11:14 -4.01745 39.60401 222 ft 133 kts 204°
2026-05-07 11:14 -4.02410 39.60031 219 ft 81 kts 209°
2026-05-07 11:15 -4.02776 39.59826 215 ft 41 kts 209°
2026-05-07 11:15 -4.03015 39.59693 217 ft 38 kts 208°
2026-05-07 11:15 -4.03229 39.59573 218 ft 21 kts 209°
2026-05-07 11:15 -4.03309 39.59543 217 ft 8 kts 162°
2026-05-07 11:16 -4.03325 39.59585 210 ft 7 kts 91°
2026-05-07 11:16 -4.03326 39.59638 213 ft 8 kts 90°
2026-05-07 11:16 -4.03327 39.59688 219 ft 7 kts 90°
2026-05-07 11:16 -4.03327 39.59743 214 ft 9 kts 89°
2026-05-07 11:17 -4.03325 39.59803 211 ft 9 kts 89°
2026-05-07 11:17 -4.03325 39.59867 217 ft 8 kts 90°
2026-05-07 11:17 -4.03325 39.59928 218 ft 8 kts 90°
2026-05-07 11:17 -4.03325 39.59979 212 ft 7 kts 90°
2026-05-07 11:18 -4.03324 39.60028 218 ft 6 kts 82°
2026-05-07 11:18 -4.03300 39.60056 220 ft 5 kts 32°
2026-05-07 11:18 -4.03264 39.60076 218 ft 5 kts 28°
2026-05-07 11:18 -4.03239 39.60090 210 ft 2 kts 28°
2026-05-07 11:19 -4.03220 39.60100 220 ft 4 kts 28°
2026-05-07 11:19 -4.03191 39.60116 209 ft 6 kts 29°
2026-05-07 11:19 -4.03173 39.60139 213 ft 3 kts 81°
2026-05-07 11:19 -4.03180 39.60154 218 ft 3 kts 121°
2026-05-07 11:20 -4.03192 39.60175 219 ft 4 kts 120°
2026-05-07 11:20 -4.03208 39.60203 209 ft 0 kts 118°
2026-05-07 11:20 -4.03210 39.60207 218 ft 2 kts 118°
2026-05-07 11:20 -4.03210 39.60208 209 ft 0 kts 118°